Regional Weather Roundup
Issued by NWS Upton, NY

Current Version | Previous Version | Text Only | Print | Product List | Glossary On
Versions: 1 2 3 4 5 6 7 8 9 10 11 12 13 14 15 16 17 18 19 20 21 22 23 24 25 26 27 28 29 30 31 32 33 34 35 36 37 38 39 40 41 42 43 44 45 46 47 48 49 50
134 ASUS41 KOKX 250305 RWROKX Regional Weather Roundup National Weather Service New York NY 1000 PM EST SAT FEB 24 2018 Note: "FAIR" indicates few or no clouds below 12,000 feet with no significant weather and/or obstructions to visibility. NYZ071-072-176-178-NJZ106-104-250400- New York City Metro Area CITY SKY/WX TMP DP RH WIND PRES REMARKS Central Park CLOUDY 45 43 93 NE7 30.24R FOG Bronx Bot Gard N/A 43 41 93 CALM 30.21F Bronx Lehman C N/A 43 41 93 NE7 N/A LaGuardia Arpt LGT RAIN 44 41 89 NE12 30.22R Queens College N/A 45 43 93 NE10 N/A Kennedy Intl LGT RAIN 45 44 97 NE13 30.23R FOG Breezy Point N/A 45 N/A N/A NE8 N/A Brooklyn Coll N/A 46 45 93 NE5 N/A Staten Island N/A 45 43 93 N6 N/A Newark/Liberty LGT RAIN 45 43 93 N10 30.22R FOG Teterboro DRIZZLE 45 40 82 NE12G24 30.21S $$ NYZ177-179-078>081-250400- Long Island New York CITY SKY/WX TMP DP RH WIND PRES REMARKS Jones Beach N/A 43 N/A N/A NE15 N/A Wantagh N/A 43 41 93 N6 N/A Hempstead N/A 43 41 93 N5 30.25R Matinecock Pt N/A 41 N/A N/A E7 N/A Farmingdale CLOUDY 43 41 93 N12 30.22S MacArthur/ISP DRIZZLE 44 43 96 N14 30.21F FOG Stony Brook U N/A 43 41 93 NE3 N/A Shirley LGT RAIN 43 43 100 N6 30.22F FOG Mt Sinai Harb N/A 41 N/A N/A MISG N/A Westhampton LGT RAIN 43 41 93 N8 30.24R East Hampton DRIZZLE 41 39 93 N6 30.23R Southold N/A 41 39 93 N6 N/A Montauk N/A 43 40 89 N3 30.24R $$ NYZ052-065-067-250400- Hudson Valley CITY SKY/WX TMP DP RH WIND PRES REMARKS White Plains MOCLDY 42 38 85 NE5 30.19F Larchmont Harb N/A 41 N/A N/A N9 N/A Croton On Huds N/A 41 N/A N/A MISG N/A Somers N/A 39 37 93 NE1 N/A Brewster N/A 39 37 93 N2 N/A Newburgh CLOUDY 39 39 100 CALM 30.24S Montgomery CLOUDY 39 38 96 N5 30.20F Otisville N/A 37 37 100 NE1 N/A Warwick N/A 39 39 100 E1 N/A Suffern N/A 41 37 87 NE5 N/A Poughkeepsie CLOUDY 39 38 96 CALM 30.22F FOG Albany CLOUDY 37 29 72 N5 30.25S WCI 33 $$ NJZ001-105-106-008-010-013-015-019>022-104-250400- New Jersey CITY SKY/WX TMP DP RH WIND PRES REMARKS Newark/Liberty LGT RAIN 45 43 93 N10 30.22R FOG Teterboro DRIZZLE 45 40 82 NE12G24 30.21S Caldwell LGT RAIN 44 43 96 CALM 30.22S FOG Somerville LGT RAIN 44 43 96 NE5 30.19R FOG Linden DRIZZLE 46 42 89 CALM 30.22R Perth Amboy N/A 45 N/A N/A NE6 N/A Sussex CLOUDY 41 39 93 N8 30.21S Andover N/A 42 41 96 CALM 30.20F Trenton CLOUDY 46 43 89 NE5 30.19R Millville CLOUDY 49 45 86 E10 30.15F Atlantic City CLOUDY 48 45 89 NE13 30.16S Wrightstown CLOUDY 46 43 90 NE6 30.16R Toms River CLOUDY 46 44 93 NE8 30.19S Belmar CLOUDY 46 44 93 NE7 30.21R $$ PAZ047>061-062-071-250400- Eastern Pennsylvania CITY SKY/WX TMP DP RH WIND PRES REMARKS Philadelphia LGT RAIN 47 44 90 NE8 30.19R Allentown CLOUDY 44 41 89 E8 30.18F Scranton CLOUDY 41 39 93 NE6 30.16F $$ CTZ002-004>006-009-010-012-RIZ004-006-007-MAZ004-011-015-250400- Southern New England In CT CITY SKY/WX TMP DP RH WIND PRES REMARKS Bradley Intl CLOUDY 42 34 73 N5 30.23S Hartford MOCLDY 41 39 93 N3 30.23S Danbury CLOUDY 41 38 89 CALM 30.22F Wtrbury/Oxford LGT RAIN 38 36 92 N5 30.21F WCI 34 Norwalk Harbor N/A 41 N/A N/A N7 N/A Bridgeport CLOUDY 44 40 85 N5 30.22F Meriden CLOUDY 41 38 89 CALM 30.23F New Haven CLOUDY 43 40 89 N5 30.22F Chester MIX PCPN 41 39 93 NW5 30.22F Groton CLOUDY 44 40 85 N6 30.22F Willimantic FAIR 42 40 92 CALM 30.24R In RI CITY SKY/WX TMP DP RH WIND PRES REMARKS Providence DRIZZLE 44 41 89 N3 30.24R Block Island LGT RAIN 41 41 100 N3 30.23S Westerly CLOUDY 44 42 93 N3 30.23S In MA CITY SKY/WX TMP DP RH WIND PRES REMARKS Boston FAIR 41 30 65 N7 30.26R Worcester FAIR 39 28 64 NE7 30.22R WCI 34 Westfield FAIR 39 33 79 N5 30.23S Provincetown FAIR 41 36 82 N7 30.26R Nantucket LGT RAIN 43 43 100 NE6 30.25R $$ ANZ330-335-338-340-345-350-353-355-250400- Coastal Marine Observations STATION/POSITION TIME SKY/WX TEMP WIND PRES VSBY WAVE AIR SEA DIR/SP/G HT/PER (UTC) (F) (DEG/KT/KT) (MB) (MI) (FT/S) NY Harb Entrance 0240 41 39 360/ 4/ 4 1023.5 20 S Fire Island 0250 45 43 70/ 6/ 6 1022.9 2/ 9 23 SSW Montauk P 0250 43 43 360/ 8/ 10 1023.7 2/ 8 15 E Barnegat Li 0230 42 N/A 2/ 9 Hudson Canyon 0250 47 46 90/ 8/ 10 1021.6 2/10 Kings Point 0236 43 39 80/ 7/ 12 1024.2 Execution Rocks NOT AVBL Western LI Sound NOT AVBL Central LI Sound 0200 41 350/ 8/ 10 N/A 0 Robbins Reef 0242 45 10/ 8/ 10 1023.8 $$ >>>>>>>>>>>>>>>>>>>>>>>>>>>> KEY <<<<<<<<<<<<<<<<<<<<<<<<<<< > < > SKY/WX - Sky Condition/Present Weather < > TMP - Temperature in Fahrenheit < > DP - Dew Point in Fahrenheit < > RH - Relative Humidity in Percent < > WIND - Direction (from) and Speed in MPH < > PRES - Mean Sea Level Pressure (inches of Hg) < > WCI - Wind Chill Index < > VSB - Visibility in Miles < > HX - Heat Index < > TC - Temperature in Celsius < > VRB - Varibale Wind Direction < > < >>>>>>>>>>>>>>>>>>>>>>>>>>>> KEY <<<<<<<<<<<<<<<<<<<<<<<<<<<

USA.gov is the U.S. government's official web portal to all federal, state and local government web resources and services.